CPA549 RJTT-VHHH

Flight info

Callsign CPA549
Flight time N/A
Altitude 34000
Route LAXAS4 LAXAS Y56 TOHME Y54 TURFY Y24 KOSHI A1 APU/N0488F360 A1 ELATO V522 ABBEY ABBEY4A
Aircraft B77W/H-SDE1E2E3FGHIJ2J3J4J5M1RWXY/LB1D1

Departure

Time N/A
Airport Tokyo Haneda International Airport (RJTT)

Arrival

Time 2026-04-30 15:18
Airport Hong Kong International Airport (VHHH)
Time Latitude Longitude Altitude Speed Heading
2026-04-30 14:40 22.31645 116.65481 36064 ft 443 kts 268°
2026-04-30 14:40 22.31571 116.62142 36060 ft 443 kts 268°
2026-04-30 14:41 22.31422 116.55531 36063 ft 443 kts 268°
2026-04-30 14:41 22.31270 116.48874 36063 ft 443 kts 268°
2026-04-30 14:42 22.31114 116.42221 36062 ft 443 kts 268°
2026-04-30 14:42 22.30956 116.35561 36050 ft 444 kts 268°
2026-04-30 14:43 22.30795 116.28900 36065 ft 444 kts 268°
2026-04-30 14:43 22.30660 116.23356 36064 ft 444 kts 268°
2026-04-30 14:44 22.30466 116.15590 36059 ft 444 kts 267°
2026-04-30 14:44 22.30324 116.10001 36057 ft 444 kts 267°
2026-04-30 14:45 22.30154 116.03365 36055 ft 444 kts 267°
2026-04-30 14:45 22.29978 115.96651 35223 ft 452 kts 267°
2026-04-30 14:46 22.29890 115.93300 34471 ft 440 kts 267°
2026-04-30 14:46 22.29802 115.90004 33595 ft 442 kts 267°
2026-04-30 14:46 22.29713 115.86661 32657 ft 445 kts 268°
2026-04-30 14:46 22.29622 115.83315 31742 ft 447 kts 268°
2026-04-30 14:47 22.29536 115.79945 30817 ft 451 kts 268°
2026-04-30 14:47 22.29464 115.76569 30137 ft 449 kts 268°
2026-04-30 14:47 22.29393 115.73201 29344 ft 447 kts 268°
2026-04-30 14:47 22.29320 115.69844 28629 ft 445 kts 268°
2026-04-30 14:48 22.29240 115.66510 27948 ft 441 kts 268°
2026-04-30 14:48 22.29151 115.63254 27300 ft 438 kts 268°
2026-04-30 14:48 22.29056 115.59931 26640 ft 435 kts 267°
2026-04-30 14:48 22.28963 115.56715 26001 ft 433 kts 267°
2026-04-30 14:49 22.28870 115.53479 25351 ft 431 kts 268°
2026-04-30 14:49 22.28778 115.50249 24699 ft 429 kts 268°
2026-04-30 14:49 22.28686 115.47034 24053 ft 428 kts 268°
2026-04-30 14:49 22.28594 115.43818 23371 ft 427 kts 268°
2026-04-30 14:50 22.28410 115.37451 21996 ft 422 kts 268°
2026-04-30 14:50 22.28318 115.34292 21357 ft 418 kts 268°
2026-04-30 14:51 22.28130 115.28058 20126 ft 412 kts 267°
2026-04-30 14:51 22.28035 115.24975 19510 ft 410 kts 267°
2026-04-30 14:51 22.27846 115.18893 18249 ft 390 kts 268°
2026-04-30 14:52 22.27757 115.16048 17604 ft 370 kts 268°
2026-04-30 14:52 22.27592 115.10770 16514 ft 340 kts 268°
2026-04-30 14:52 22.27510 115.08207 16005 ft 337 kts 268°
2026-04-30 14:53 22.27342 115.02975 14997 ft 377 kts 268°
2026-04-30 14:53 22.27249 115.00105 14375 ft 380 kts 268°
2026-04-30 14:54 22.27073 114.94632 13306 ft 349 kts 268°
2026-04-30 14:54 22.26891 114.89201 12086 ft 362 kts 268°
2026-04-30 14:55 22.26706 114.83953 11392 ft 336 kts 267°
2026-04-30 14:55 22.26621 114.81535 11215 ft 307 kts 267°
2026-04-30 14:55 22.25512 114.77176 11088 ft 319 kts 236°
2026-04-30 14:56 22.22363 114.73733 11025 ft 319 kts 225°
2026-04-30 14:56 22.19207 114.70566 10712 ft 297 kts 225°
2026-04-30 14:57 22.17749 114.69095 10517 ft 280 kts 225°
2026-04-30 14:57 22.15006 114.66300 9919 ft 263 kts 226°
2026-04-30 14:58 22.12304 114.63529 9638 ft 270 kts 226°
2026-04-30 14:58 22.10949 114.62139 9509 ft 268 kts 226°
2026-04-30 14:58 22.08259 114.59381 9239 ft 266 kts 226°
2026-04-30 14:59 22.05589 114.56642 8978 ft 264 kts 226°
2026-04-30 15:00 22.01883 114.52382 8584 ft 256 kts 247°
2026-04-30 15:00 22.00517 114.48722 8370 ft 266 kts 249°
2026-04-30 15:01 21.99132 114.45068 8102 ft 261 kts 249°
2026-04-30 15:01 21.98456 114.43291 7968 ft 259 kts 249°
2026-04-30 15:01 21.97098 114.39733 7734 ft 255 kts 248°
2026-04-30 15:02 21.96422 114.37966 7595 ft 255 kts 248°
2026-04-30 15:02 21.95743 114.36191 7486 ft 255 kts 248°
2026-04-30 15:03 21.93700 114.30862 7128 ft 258 kts 248°
2026-04-30 15:03 21.92321 114.27267 6862 ft 261 kts 248°
2026-04-30 15:04 21.90926 114.23639 6606 ft 263 kts 248°
2026-04-30 15:04 21.89878 114.18073 6222 ft 256 kts 288°
2026-04-30 15:05 21.92426 114.12964 5849 ft 262 kts 298°
2026-04-30 15:06 21.94208 114.09558 5579 ft 259 kts 298°
2026-04-30 15:06 21.95956 114.06199 5321 ft 255 kts 299°
2026-04-30 15:07 21.97675 114.02881 5094 ft 254 kts 299°
2026-04-30 15:07 21.99423 113.99499 4864 ft 261 kts 300°
2026-04-30 15:08 22.01169 113.96116 4587 ft 258 kts 300°
2026-04-30 15:08 22.03756 113.91096 4206 ft 253 kts 301°
2026-04-30 15:09 22.05481 113.87747 3989 ft 259 kts 300°
2026-04-30 15:09 22.07227 113.84352 3729 ft 258 kts 301°
2026-04-30 15:10 22.08955 113.80993 3472 ft 254 kts 300°
2026-04-30 15:11 22.13465 113.76213 2980 ft 210 kts 337°
2026-04-30 15:11 22.16013 113.74929 2833 ft 198 kts 337°
2026-04-30 15:12 22.19603 113.73137 2533 ft 189 kts 337°
2026-04-30 15:13 22.22046 113.72755 2336 ft 181 kts 33°
2026-04-30 15:14 22.26245 113.75862 1972 ft 180 kts 56°
2026-04-30 15:14 22.27718 113.79389 1737 ft 164 kts 71°
2026-04-30 15:16 22.29483 113.84824 1000 ft 147 kts 71°
2026-04-30 15:17 22.30795 113.88885 277 ft 142 kts 72°
2026-04-30 15:18 22.31754 113.92240 42 ft 18 kts 142°
2026-04-30 15:19 22.31652 113.92087 41 ft 9 kts 251°